#timestamp,LO_Frequency,Hit,StdDev 
1629799215.2,286047000.1,N
1629799235.0,286047000.9,N
1629799235.9,286047000.9,N
1629799255.8,286047000.9,N
1629799275.6,286047000.0,N
1629799295.4,286046999.7,N
1629799315.3,286047002.3,N
1629799335.1,286047001.6,N
1629799355.9,286046999.7,N
1629799375.7,286047002.6,N
1629799395.5,286047003.6,N
1629799415.4,286047005.0,Y
1629799435.2,286047003.3,P
1629799455.0,286047003.2,N
1629799455.9,286047003.2,N
1629799475.8,286047005.5,Y
1629799495.6,286047002.5,P
1629799515.5,286047002.4,P
1629799535.3,286047000.2,N
1629799555.1,286047000.1,N
1629799575.9,286047000.1,N
1629799595.7,286047002.4,N
1629799615.6,286047002.1,N
1629799635.4,286047001.7,N
1629799655.2,286047002.4,N
1629799675.1,286047002.2,N
1629799676.0,286047002.2,N
1629799695.8,286047002.6,N
1629799715.6,286047002.8,N
1629799735.5,286047000.7,N
1629799755.3,286046996.6,Y
1629799775.2,286046996.2,P
1629799795.9,286046993.3,N
1629799815.7,286046995.9,N
1629799835.6,286046996.0,N
1629799855.4,286046996.0,N
1629799875.2,286046993.9,N
1629799895.1,286046993.9,N
1629799896.0,286046993.9,N
1629799915.8,286046996.0,N
1629799935.7,286046992.3,Y
1629799955.5,286046999.0,P
1629799975.3,286046999.1,N
1629799995.2,286046999.2,N
1629800015.0,286046998.6,N
1629800015.9,286046998.6,N
1629800035.7,286046999.1,N
1629800055.6,286047001.1,N
1629800075.4,286047000.0,N
1629800095.3,286047002.1,N
1629800115.1,286047000.0,N
1629800116.0,286047000.0,N
1629800135.8,286047002.7,N
1629800155.7,286047002.4,N
1629800175.5,286047000.3,N
1629800195.3,286047000.4,N
1629800215.2,286047001.0,N
1629800235.0,286046998.7,N
1629800266.0,286047000.5,E
1629800275.9,286047000.5,N
1629800295.7,286046998.4,P
1629800315.5,286047000.6,N
1629800335.4,286046998.4,N
1629800355.2,286047000.4,N
1629800375.1,286047000.4,N
1629800376.0,286047000.4,N
1629800395.8,286047002.4,N
1629800415.6,286046999.8,N
1629800435.5,286047004.4,Y
1629800455.3,286047001.4,P
1629800475.2,286047003.1,P
1629800495.9,286047001.3,N
1629800515.7,286047004.4,Y
1629800565.6,286047002.3,E
1629800575.5,286047001.1,N
1629800595.4,286046997.8,P
1629800615.2,286046997.3,N
1629800635.0,286046995.3,N
1629800635.9,286046995.3,N
1629800655.8,286046997.6,N
1629800675.6,286046995.5,N
1629800695.5,286046997.9,N
1629800715.3,286046999.4,N
1629800735.1,286046999.0,N
1629800755.9,286046998.4,N
1629800775.7,286046999.9,N
1629800795.5,286047000.7,N
1629800815.4,286047000.8,N
1629800835.2,286046998.4,N
1629800855.0,286047000.9,N
1629800856.0,286047000.9,N
1629800875.8,286047000.4,N
1629800895.6,286047000.5,N
1629800915.5,286047000.1,N
1629800935.3,286047000.7,N
1629800955.1,286046998.2,N
1629800975.9,286047001.0,N
1629800995.7,286046998.1,N
1629801015.6,286046998.4,N
1629801035.4,286046998.7,N
1629801055.2,286046998.8,N
1629801075.1,286047001.2,N
1629801076.0,286047001.2,N
1629801095.8,286046999.8,N
1629801115.6,286047002.8,N
1629801135.5,286047000.0,N
1629801155.3,286047002.7,N
1629801175.2,286047002.8,N
1629801195.9,286047002.3,N
1629801215.7,286047001.5,N
1629801235.6,286047003.6,N
1629801255.4,286047005.7,Y
1629801275.2,286047005.1,P
1629801295.1,286047004.7,N
1629801296.0,286047004.7,N
1629801315.8,286047005.5,N
1629801335.7,286047003.2,N
1629801355.5,286047001.5,N
1629801375.3,286047004.4,N
1629801395.2,286047003.9,N
1629801415.0,286047001.9,N
1629801415.9,286047001.9,N
1629801435.7,286047000.3,N
1629801455.6,286046998.1,N
1629801475.4,286047000.4,N
1629801495.3,286046999.7,N
1629801515.1,286047001.0,N
1629801535.8,286047000.1,N
1629801555.7,286047002.8,N
1629801575.5,286047002.3,N
1629801595.4,286047001.6,N
1629801615.2,286047002.0,N
1629801635.0,286047002.2,N
1629801635.9,286047002.2,N
1629801655.8,286047001.6,N
1629801675.6,286047000.4,N
1629801695.4,286047000.4,N
1629801715.3,286046998.1,N
1629801735.1,286046999.7,N
1629801755.9,286047002.1,N
1629801775.7,286046999.9,N
1629801795.5,286047002.2,N
1629801815.4,286047001.6,N
1629801835.2,286047000.1,N
1629801855.0,286047000.2,N
1629801856.0,286047000.2,N
1629801875.8,286047001.3,N
1629801895.6,286047001.3,N
1629801915.5,286047003.8,N
1629801935.3,286047005.0,Y
1629801955.1,286047003.1,P
1629801975.9,286047004.3,P
1629801995.7,286047002.1,N
1629802015.6,286047004.3,Y
1629802035.4,286047002.5,P
1629802055.2,286047001.4,P
1629802075.1,286047004.3,P
1629802076.0,286047004.3,Y
1629802095.8,286047002.3,P
1629802115.6,286047002.0,P
1629802135.5,286047001.6,P
1629802155.3,286047001.7,Y
1629802175.2,286047002.6,P
1629802195.0,286047002.1,P
1629802195.9,286047002.1,P
1629802215.7,286047003.9,Y
1629802235.6,286047001.5,P
1629802255.4,286047004.0,P
1629802275.3,286047001.6,N
1629802295.1,286047003.6,Y
1629802315.8,286047002.8,P
1629802335.7,286047000.3,N
1629802355.5,286047000.8,N
1629802375.4,286047002.5,N
1629802395.2,286047002.5,N
1629802415.0,286047004.3,Y
1629802415.9,286047004.3,P
1629802435.8,286046998.1,N
1629802455.6,286046996.7,N
1629802475.4,286047001.1,N
1629802495.3,286046998.5,N
1629802515.1,286047000.2,N
1629802535.9,286046998.9,N
1629802555.7,286046998.3,N
1629802575.5,286047000.0,N
1629802595.4,286047000.6,N
1629802615.2,286047000.6,N
1629802635.0,286047002.2,N
1629802635.9,286047002.2,N
1629802655.8,286047002.5,N
1629802675.6,286047002.3,N
1629802695.5,286047004.0,N
1629802715.3,286047004.2,N
1629802735.1,286047003.4,N
1629802755.9,286047003.1,N
1629802775.7,286047005.7,N
1629802795.5,286047005.0,N
